Temperature
17 17 17 17 17 17 18 18 17 17 17 17 17 17 17 17 17 17 17 17 17 16 16 16 16 16 16 16 16 15 15 15 15 15 15 14 14 14
17 17 17 17 17 17 17 17 17 17 17 17 17 17 17 16 16 16 16 16 16 16 16 16 16 16 15 15 15 15 15 15 15 14 14 14 14 14
17 17 17 17 17 17 17 17 17 17 16 16 16 16 16 16 16 16 16 16 16 15 15 15 15 15 15 15 14 14 14 14 14 14 14 14 14 13
16 16 16 16 16 16 16 16 16 16 16 16 15 15 15 15 15 15 15 15 15 15 15 14 14 14 14 14 14 14 14 14 14 13 13 13 13 13
16 16 16 16 16 16 16 16 16 16 16 15 15 15 15 15 15 15 14 14 14 14 14 14 14 13 13 13 13 13 13 13 13 13 13 13 13 12
16 16 16 16 16 16 15 15 15 15 15 15 15 14 14 14 14 14 14 14 13 13 13 13 13 13 13 12 12 12 12 12 12 12 12 12 12 12
15 15 15 15 15 15 15 15 15 15 15 14 14 14 14 14 13 13 13 13 13 12 12 12 12 12 12 12 12 12 11 12 12 11 11 11 11 11
15 14 14 14 14 14 14 14 14 14 14 14 14 13 13 13 13 13 12 12 12 12 12 11 11 11 11 11 11 11 11 11 11 11 11 11 11 10
15 14 14 14 14 14 14 14 14 14 13 13 13 13 12 12 12 12 12 12 12 11 11 11 11 11 11 11 10 10 10 10 10 10 10 10 10 10
14 14 14 13 13 13 13 13 13 13 13 13 12 12 12 12 12 12 12 11 11 11 11 10 10 10 10 10 10 10 10 10 10 10 10 9 9 9
13 13 13 13 13 13 13 12 12 12 12 12 12 12 11 11 11 11 11 11 11 10 10 10 10 10 10 10 10 9 9 9 9 9 9 9 9 9
13 13 13 12 12 12 12 12 11 11 11 11 11 11 11 11 10 11 10 10 10 10 10 10 10 10 9 9 9 9 9 9 9 9 8 8 8 8
12 12 12 12 12 12 11 11 11 11 11 10 10 10 10 10 10 10 10 10 10 9 9 9 9 9 9 9 9 9 8 8 8 8 8 8 8 8
11 11 11 11 11 11 11 10 10 10 10 10 10 9 9 9 9 9 9 9 9 9 9 9 9 9 9 8 8 8 8 8 8 8 8 7 7 7
11 11 11 10 10 10 10 10 10 10 9 9 9 9 9 9 9 9 9 9 9 9 9 8 8 8 8 8 8 8 8 8 8 7 7 7 7 7
10 10 10 10 10 9 9 9 9 9 9 9 9 9 9 9 8 8 8 8 8 8 8 8 8 8 8 8 8 8 8 7 7 7 7 7 7 6
10 10 10 9 9 9 9 9 9 8 8 8 8 8 8 8 8 8 8 8 8 8 8 8 8 8 8 8 8 7 7 7 7 7 7 6 6 6
10 9 9 9 9 9 8 8 8 8 8 8 8 8 8 8 8 8 8 8 8 8 7 7 7 7 7 7 7 7 7 7 7 6 6 6 6 6
9 9 9 9 8 8 8 8 8 8 8 7 7 7 7 8 7 7 7 7 7 7 7 7 7 7 7 7 7 7 7 6 6 6 6 6 6 6
9 9 8 8 8 8 8 8 8 8 7 7 7 7 7 7 7 7 7 7 7 7 7 7 7 7 7 7 7 7 7 6 6 6 6 6 6 5
8 8 8 8 8 8 8 8 7 7 7 7 7 7 7 7 7 7 7 7 7 7 7 7 7 7 7 7 7 6 6 6 6 6 6 6 6 5
8 8 8 8 8 8 8 7 7 7 7 7 7 7 7 7 7 7 7 7 7 7 7 7 7 7 7 6 6 6 6 6 6 6 6 6 6 5
8 8 8 7 7 7 7 7 7 7 7 6 6 6 6 6 6 6 6 6 6 6 6 6 6 6 6 6 6 6 6 6 6 6 6 6 6 5
Wind_Speed
4 4 4 4 4 3 2 2 3 3 3 2 1 0 0 2 4 4 5 8 10 11 12 12 11 10 9 8 8 8 8 8 8 7 8 8 8 8
2 2 2 3 3 2 2 2 2 3 3 2 1 0 1 1 3 4 4 5 7 8 9 8 8 7 6 6 6 6 6 6 6 6 6 6 6 6
2 2 2 2 2 2 2 2 2 1 3 3 2 1 1 2 2 2 3 4 5 7 7 7 6 6 5 4 3 3 3 4 4 4 4 5 5 5
1 1 2 2 2 2 2 3 2 1 2 3 2 2 1 1 1 1 2 3 4 5 6 7 7 6 5 5 4 3 2 2 2 2 3 3 3 3
2 2 2 2 2 2 2 2 2 1 0 1 1 1 1 1 2 1 2 3 4 4 5 6 7 6 6 5 4 3 3 3 2 2 1 1 1 1
3 4 4 4 4 3 3 3 2 2 1 1 0 1 1 2 1 1 2 2 3 3 4 5 6 7 6 5 4 4 3 2 2 2 2 2 1 1
4 4 6 7 8 6 4 4 4 3 2 2 1 2 2 2 2 1 1 2 2 2 2 3 4 4 4 4 4 4 3 2 2 2 2 2 1 1
4 3 4 6 7 8 9 8 6 4 3 3 3 3 3 2 1 1 0 1 1 1 1 1 2 2 4 4 4 4 3 2 2 2 1 1 1 0
5 4 4 6 6 6 7 8 9 8 6 4 4 3 3 3 2 2 2 1 1 1 1 1 1 2 3 4 5 4 3 3 2 1 0 1 1 1
6 6 6 7 7 6 6 7 7 7 6 5 5 5 5 4 3 2 1 2 2 2 2 1 1 1 2 4 4 4 3 2 1 1 1 1 2 2
8 9 8 8 10 8 6 6 6 5 8 9 8 7 8 8 7 4 3 2 2 2 3 2 1 1 1 1 3 3 2 2 1 1 2 3 2 1
7 9 12 10 10 10 6 6 5 4 4 5 5 6 6 8 9 6 4 3 2 2 3 3 2 2 1 0 2 2 1 0 0 2 2 3 3 1
6 6 6 9 10 10 8 6 5 3 3 4 4 4 4 4 5 6 6 4 3 3 3 3 2 3 1 1 0 1 3 3 2 1 1 2 2 1
6 6 6 8 9 10 8 8 8 6 4 4 4 4 4 4 4 4 6 6 4 3 3 3 2 2 2 2 1 1 1 1 2 1 2 2 3 3
6 7 6 6 6 6 7 8 7 4 4 5 5 4 4 4 3 3 3 3 3 4 5 5 3 3 2 2 2 1 1 1 1 1 1 2 2 2
5 5 4 5 4 5 5 4 4 5 5 4 4 4 3 3 3 3 2 2 2 2 2 4 4 3 2 3 2 3 2 2 2 2 2 2 2 3
3 2 3 3 3 3 4 4 4 4 4 4 4 4 4 3 3 3 3 3 3 3 3 2 3 3 2 2 2 2 3 2 1 1 1 1 2 2
4 4 4 3 3 3 3 3 3 4 4 4 4 4 3 3 3 3 3 4 3 3 3 2 2 2 2 2 3 3 3 3 2 1 1 1 1 2
3 4 3 3 3 3 3 3 3 3 3 3 3 3 4 3 3 3 3 4 3 3 3 3 3 3 3 3 3 4 3 3 3 2 2 2 1 1
3 3 3 3 3 3 3 3 3 3 3 3 3 3 3 3 3 3 3 4 4 4 3 3 3 3 2 2 2 3 3 2 2 2 2 1 1 2
3 3 3 3 3 2 2 2 2 2 2 2 3 3 3 3 3 4 3 4 3 3 3 3 2 3 2 2 2 2 1 2 2 2 2 2 2 1
3 3 3 3 3 3 2 2 3 3 3 4 4 4 4 4 4 4 4 4 3 4 4 3 2 2 2 3 3 3 2 2 3 4 5 5 2 2
3 3 3 3 3 3 4 5 5 4 4 4 4 4 4 4 4 4 4 4 4 4 4 4 4 3 3 3 3 3 3 3 2 2 3 6 8 8
Wind_Direction
242 244 245 256 260 266 265 253 237 252 266 273 266 306 115 174 172 179 171 186 195 198 201 204 206 208 211 216 219 225 231 235 240 245 249 250 251 255
247 252 256 271 270 269 267 262 242 236 252 277 270 350 40 47 107 128 131 136 162 179 185 186 188 191 195 202 212 220 224 230 237 244 248 251 250 251
269 260 257 267 286 296 291 283 276 233 248 275 306 339 24 24 72 101 99 114 126 145 158 161 159 158 161 170 180 190 210 223 231 234 236 240 246 249
307 329 319 298 291 303 309 302 295 266 235 260 293 318 325 353 19 48 91 101 109 127 143 148 145 144 141 133 121 115 133 166 188 210 225 232 239 249
35 33 13 2 356 342 337 326 324 326 196 213 273 317 344 4 15 25 69 77 81 107 120 129 137 139 138 134 129 122 115 111 115 120 136 119 105 84
56 50 40 38 29 17 12 4 0 7 53 81 31 359 6 1 24 50 66 61 67 72 87 101 111 117 119 113 114 111 105 98 97 101 93 84 79 74
60 61 61 62 58 53 48 30 27 30 40 52 36 21 15 14 5 7 79 81 63 68 86 103 113 116 113 108 104 98 103 107 104 95 91 86 76 72
56 58 70 63 67 68 67 61 57 55 47 55 42 25 15 10 6 22 76 103 47 27 56 61 111 86 106 113 117 116 107 104 105 101 97 80 40 305
55 51 49 46 56 70 70 66 61 57 60 64 54 28 21 11 10 34 35 46 67 17 10 351 67 75 109 113 130 124 118 104 96 109 85 354 325 290
58 57 59 51 42 57 72 69 63 54 53 63 62 50 46 29 23 33 62 78 96 45 9 342 43 85 98 130 151 139 115 105 83 49 3 329 307 290
64 56 54 53 33 46 67 71 70 63 63 67 68 68 58 45 39 37 36 55 51 51 25 5 5 5 109 136 156 146 116 98 81 32 11 352 328 264
82 68 57 52 44 44 55 59 56 48 58 61 57 55 54 50 45 36 26 31 35 42 17 3 2 359 355 40 138 152 165 219 338 332 338 349 355 316
83 76 60 50 51 47 49 52 44 31 53 58 58 55 46 43 45 42 34 41 37 34 20 3 352 349 348 334 339 180 187 194 200 266 330 355 24 41
81 83 76 64 60 56 53 42 37 35 35 46 51 48 46 40 40 45 45 46 48 67 39 14 357 348 344 340 338 323 265 163 136 133 126 80 74 67
82 92 88 77 73 65 57 41 29 26 34 46 46 41 43 38 33 36 39 42 39 36 35 23 2 341 334 344 346 352 347 341 69 60 64 80 84 74
90 100 92 63 58 60 53 43 41 33 38 39 32 32 34 31 25 16 12 20 40 27 25 27 13 2 350 353 5 4 6 0 23 40 33 52 83 88
74 102 92 84 77 71 64 51 38 31 31 28 24 24 22 21 15 7 2 1 18 13 5 356 15 18 28 12 359 356 357 1 27 35 6 22 48 75
65 78 70 64 63 60 57 56 46 31 23 23 19 12 7 16 14 8 3 355 359 7 5 358 355 347 345 18 1 345 353 351 353 15 6 358 42 93
66 74 71 59 53 53 48 47 46 34 17 20 14 9 2 3 6 6 1 353 355 358 354 357 358 354 348 343 345 357 349 343 351 354 340 329 326 137
58 63 68 65 56 46 41 36 41 43 17 6 4 3 355 353 354 357 8 357 351 350 345 351 358 350 330 312 306 311 317 313 329 330 326 325 31 99
59 52 54 53 44 34 30 24 29 37 12 0 2 353 350 352 353 349 358 356 340 334 337 344 312 295 284 297 304 298 287 271 249 256 294 305 288 244
38 49 51 41 29 18 20 20 19 29 20 9 358 349 348 347 346 345 345 343 340 343 339 333 304 302 310 318 313 310 308 289 272 264 256 242 244 261
41 35 38 37 35 27 22 17 17 20 16 2 352 346 341 341 337 338 338 339 339 344 342 336 333 324 320 320 318 317 327 320 293 273 274 256 242 245
Height
1547 1548 1549 1549 1550 1551 1551 1551 1552 1551 1550 1550 1550 1550 1549 1549 1549 1549 1549 1549 1550 1550 1550 1550 1550 1551 1551 1551 1552 1552 1552 1552 1552 1552 1552 1553 1553 1553
1544 1544 1545 1546 1546 1547 1547 1547 1548 1548 1547 1547 1547 1547 1547 1547 1546 1546 1545 1545 1545 1546 1546 1546 1546 1546 1546 1546 1546 1547 1547 1547 1547 1547 1547 1547 1547 1547
1541 1541 1542 1542 1543 1543 1544 1544 1544 1544 1544 1543 1544 1543 1543 1543 1542 1542 1542 1542 1542 1542 1542 1542 1542 1542 1542 1542 1542 1542 1542 1542 1542 1542 1542 1542 1542 1542
1539 1539 1539 1540 1540 1540 1541 1541 1541 1541 1541 1540 1540 1540 1540 1539 1539 1538 1538 1538 1538 1538 1539 1539 1538 1538 1538 1538 1538 1537 1537 1537 1537 1537 1537 1537 1537 1537
1537 1537 1537 1538 1538 1538 1539 1539 1539 1539 1539 1538 1538 1538 1537 1537 1536 1536 1535 1535 1535 1535 1535 1535 1534 1534 1534 1534 1534 1533 1533 1533 1533 1533 1532 1532 1532 1532
1536 1536 1536 1536 1536 1536 1537 1537 1537 1536 1536 1536 1536 1535 1535 1535 1534 1533 1533 1533 1532 1532 1532 1532 1532 1532 1532 1531 1531 1530 1530 1529 1529 1529 1528 1528 1528 1528
1535 1535 1535 1535 1535 1535 1535 1535 1535 1534 1534 1534 1534 1533 1533 1533 1532 1532 1532 1531 1531 1531 1531 1531 1530 1530 1530 1529 1529 1528 1528 1527 1526 1526 1525 1525 1525 1525
1534 1535 1535 1535 1534 1534 1534 1534 1534 1533 1533 1533 1532 1532 1532 1532 1531 1531 1530 1530 1530 1531 1530 1530 1530 1529 1528 1528 1527 1526 1526 1525 1524 1523 1523 1522 1522 1522
1534 1534 1534 1534 1534 1534 1534 1533 1533 1533 1533 1533 1532 1531 1531 1530 1530 1529 1529 1529 1529 1529 1529 1529 1529 1528 1528 1527 1526 1526 1525 1524 1523 1522 1521 1520 1520 1519
1534 1534 1534 1534 1534 1534 1534 1533 1533 1532 1532 1532 1532 1531 1531 1531 1530 1529 1529 1529 1529 1529 1529 1529 1528 1528 1527 1527 1526 1525 1524 1523 1521 1520 1519 1518 1518 1517
1535 1535 1535 1534 1534 1534 1534 1534 1533 1533 1533 1533 1533 1532 1532 1531 1531 1530 1529 1529 1529 1529 1529 1529 1528 1528 1527 1526 1526 1525 1523 1522 1520 1519 1518 1516 1515 1515
1535 1535 1536 1536 1536 1535 1535 1535 1535 1535 1534 1534 1534 1533 1533 1532 1531 1531 1530 1530 1530 1529 1529 1528 1528 1527 1527 1526 1525 1524 1522 1521 1520 1518 1517 1515 1514 1513
1536 1536 1537 1537 1537 1537 1536 1536 1537 1537 1536 1536 1535 1535 1534 1533 1533 1532 1531 1531 1530 1530 1530 1528 1528 1527 1527 1526 1524 1523 1522 1520 1519 1517 1516 1514 1513 1512
1538 1538 1538 1538 1538 1538 1538 1538 1538 1538 1538 1537 1537 1536 1535 1535 1534 1533 1533 1532 1531 1531 1530 1529 1528 1527 1526 1525 1524 1523 1522 1520 1519 1517 1515 1514 1512 1511
1540 1540 1540 1540 1540 1540 1540 1540 1540 1539 1539 1538 1538 1538 1537 1536 1535 1534 1533 1532 1532 1531 1530 1529 1528 1527 1526 1525 1524 1523 1522 1520 1519 1517 1515 1513 1512 1510
1541 1542 1542 1542 1542 1542 1542 1541 1541 1541 1540 1540 1539 1539 1538 1537 1536 1535 1534 1533 1532 1531 1530 1529 1528 1527 1526 1525 1524 1522 1521 1520 1519 1517 1515 1513 1512 1510
1543 1543 1543 1544 1543 1543 1543 1542 1542 1542 1541 1541 1540 1539 1539 1538 1537 1536 1535 1534 1532 1531 1530 1528 1527 1526 1525 1524 1523 1522 1521 1519 1518 1516 1514 1512 1511 1509
1544 1545 1545 1545 1545 1545 1545 1544 1543 1543 1542 1542 1541 1540 1539 1538 1537 1536 1535 1534 1533 1531 1530 1528 1527 1526 1525 1524 1523 1521 1520 1518 1517 1515 1514 1512 1510 1509
1546 1546 1546 1547 1547 1546 1546 1545 1545 1544 1543 1543 1542 1541 1540 1539 1538 1537 1535 1534 1533 1532 1530 1529 1527 1525 1524 1523 1522 1521 1519 1517 1516 1514 1513 1511 1510 1508
1547 1548 1548 1548 1548 1547 1547 1546 1546 1545 1544 1543 1542 1541 1540 1539 1538 1537 1535 1534 1533 1531 1530 1528 1526 1525 1524 1522 1521 1520 1519 1517 1515 1513 1512 1510 1509 1507
1549 1549 1549 1548 1548 1548 1547 1546 1546 1545 1544 1543 1542 1541 1540 1539 1537 1536 1535 1534 1532 1531 1529 1527 1526 1525 1523 1522 1520 1518 1517 1516 1514 1513 1511 1509 1507 1506
1550 1550 1549 1549 1548 1548 1547 1546 1546 1545 1544 1543 1542 1541 1539 1538 1537 1536 1534 1533 1532 1530 1528 1527 1525 1523 1522 1520 1518 1517 1515 1514 1512 1511 1509 1508 1506 1504
1550 1550 1549 1549 1548 1547 1547 1546 1545 1544 1543 1542 1541 1540 1539 1538 1536 1535 1534 1532 1531 1529 1527 1526 1524 1522 1521 1519 1517 1515 1514 1512 1510 1508 1507 1506 1505 1503